Powrót do katalogu

IRIDIUM 33 DEB

AktywnyPO
NORAD 33862·DEBRIS·🇺🇸 United States

Wystrzelony Sep 14, 1997 z Baikonur Cosmodrome

Loading…

Następne Przeloty (najbliższe 24 godziny)

TLE

ŚwieżeSource: Space-Track

Epoka: Sep 14, 2026, 00:23 UTC

1 33862U 97051AF  26257.01642935  .00001999  00000-0  29458-3 0  9995
2 33862  86.4043 275.5772 0047787 189.0055 201.0314 14.74042394928744

Śledź IRIDIUM 33 DEB w czasie rzeczywistym z AllMySat

Download on the App Store